This demonstration page uses our WeatherBlox Daily Observations layout. Learn more.

Left ArrowRight Arrow

Hourly Observations for December 25, 2019

Temp ( °F °C ) Dew Point ( °F °C ) Humidity (%) Winds ( mph kmh ) Pressure ( in mb ) Visibility ( mi km ) Precip ( " mm )
12:56 am 00:56 Clear 27 -2.8 25 -3.9 92 92 NNW 6 9 29.72 1007 9 14 0.00 0.00
1:56 am 01:56 Clear 27 -2.8 25 -3.9 92 92 NNW 7 11 29.71 1006 10 16 0.00 0.00
2:56 am 02:56 Partly Cloudy 29 -1.7 27 -2.8 92 92 NNW 7 11 29.73 1007 10 16 0.00 0.00
3:07 am 03:07 Mostly Cloudy 28 -2 27 -3 93 93 NW 8 13 29.82 1010 9 14 0.00 0.00
3:44 am 03:44 Mostly Cloudy with Light Snow 30 -1 28 -2 93 93 N 7 11 29.79 1009 5 8 0.00 0.00
3:56 am 03:56 Mostly Cloudy with Light Snow 30 -1.1 28 -2.2 92 92 N 13 20 29.68 1005 5 8 0.00 0.00
4:05 am 04:05 Mostly Cloudy with Mist and Fog 30 -1 28 -2 93 93 N 10 17 29.75 1007 5 8 0.00 0.00
4:56 am 04:56 Cloudy with Mist and Fog 30 -1.1 29 -1.7 96 96 ENE 3 6 29.71 1006 4 6 0.00 0.00
5:56 am 05:56 Cloudy with Mist and Fog 29 -1.7 28 -2.2 96 96 NE 6 9 29.71 1006 3 5 0.00 0.00
6:08 am 06:08 Cloudy with Mist and Fog 30 -1 28 -2 93 93 ENE 7 11 29.77 1008 2 3 0.00 0.00
6:15 am 06:15 Cloudy with Mist and Fog 30 -1 28 -2 93 93 NE 6 9 29.77 1008 1 1 0.00 0.00
6:29 am 06:29 Cloudy with Freezing Fog 30 -1 28 -2 93 93 ENE 8 13 29.76 1008 1 1 0.00 0.00
6:56 am 06:56 Cloudy with Freezing Fog 29 -1.7 29 -1.7 100 100 ENE 8 13 29.72 1006 0 0 0.00 0.00
7:56 am 07:56 Cloudy with Freezing Fog 29 -1.7 28 -2.2 96 96 NE 9 15 29.71 1006 0 0 0.00 0.00
8:56 am 08:56 Cloudy with Freezing Fog 29 -1.7 29 -1.7 100 100 NNE 8 13 29.71 1006 0 0 0.00 0.00
9:56 am 09:56 Cloudy with Freezing Fog 30 -1.1 29 -1.7 96 96 NNE 9 15 29.72 1006 0 0 0.00 0.00
10:56 am 10:56 Cloudy with Freezing Fog 31 -0.6 31 -0.6 100 100 NNE 8 13 29.74 1007 1 1 0.00 0.00
11:56 am 11:56 Cloudy with Fog 32 0 31 -0.6 96 96 N 13 20 29.71 1006 0 0 0.00 0.00
12:08 pm 12:08 Cloudy with Fog 32 0 30 -1 93 93 N 12 19 29.75 1007 1 1 0.00 0.00
12:36 pm 12:36 Cloudy with Mist and Fog 32 0 30 -1 93 93 N 9 15 29.75 1007 1 2 0.00 0.00
12:44 pm 12:44 Cloudy with Mist and Fog 32 0 30 -1 93 93 NNW 9 15 29.75 1007 1 2 0.00 0.00
12:51 pm 12:51 Cloudy with Mist and Fog 32 0 30 -1 93 93 N 8 13 29.75 1007 1 2 0.00 0.00
12:56 pm 12:56 Cloudy with Mist and Fog 32 0 31 -0.6 96 96 N 10 17 29.71 1006 1 2 0.00 0.00
1:06 pm 13:06 Cloudy with Mist and Fog 32 0 30 -1 93 93 N 8 13 29.76 1008 3 5 0.00 0.00
1:23 pm 13:23 Cloudy with Mist and Fog 32 0 30 -1 93 93 N 8 13 29.75 1007 3 4 0.00 0.00
1:30 pm 13:30 Cloudy with Mist and Fog 32 0 30 -1 93 93 NNW 8 13 29.75 1007 4 6 0.00 0.00
1:56 pm 13:56 Cloudy with Mist and Fog 32 0 31 -0.6 96 96 NNE 10 17 29.72 1006 4 6 0.00 0.00
2:56 pm 14:56 Cloudy with Mist and Fog 32 0 31 -0.6 96 96 NNE 12 19 29.72 1006 4 6 0.00 0.00
3:56 pm 15:56 Cloudy with Mist and Fog 32 0 31 -0.6 96 96 N 9 15 29.76 1008 6 10 0.00 0.00
4:11 pm 16:11 Cloudy 32 0 30 -1 93 93 N 10 17 29.80 1009 7 11 0.00 0.00
4:56 pm 16:56 Cloudy 31 -0.6 30 -1.1 96 96 NE 7 11 29.78 1009 8 13 0.00 0.00
5:56 pm 17:56 Cloudy 31 -0.6 30 -1.1 96 96 N 8 13 29.81 1010 10 16 0.00 0.00
6:56 pm 18:56 Cloudy 31 -0.6 29 -1.7 92 92 NNW 12 19 29.85 1011 9 14 0.00 0.00
7:56 pm 19:56 Cloudy 30 -1.1 29 -1.7 96 96 NNW 12 19 29.85 1011 10 16 0.00 0.00
8:56 pm 20:56 Cloudy 30 -1.1 28 -2.2 92 92 N 9 15 29.87 1012 10 16 0.00 0.00
9:56 pm 21:56 Cloudy 28 -2.2 27 -2.8 96 96 NNW 14 22 29.89 1012 10 16 0.00 0.00
10:56 pm 22:56 Cloudy 28 -2.2 26 -3.3 92 92 NNW 15 24 29.91 1013 10 16 0.00 0.00
11:56 pm 23:56 Cloudy 27 -2.8 25 -3.9 92 92 NNW 14 22 29.92 1013 10 16 0.00 0.00

Powered by AerisWeather